Time,TemperatureF,DewpointF,PressureIn,WindDirection,WindDirectionDegrees,WindSpeedMPH,WindSpeedGustMPH,Humidity,HourlyPrecipIn,Conditions,Clouds,dailyrainin,SoftwareType,DateUTC
2013-05-22 00:01:00,41.6,13.8,30.11,SE,135,1.1,2.5,32,0.00,,,0.00,WUHU216HW,2013-05-22 07:01:00,
2013-05-22 00:06:00,41.4,13.7,30.11,SE,135,0.0,2.9,32,0.00,,,0.00,WUHU216HW,2013-05-22 07:06:00,
2013-05-22 00:11:00,41.2,13.5,30.11,South,180,1.1,2.9,32,0.00,,,0.00,WUHU216HW,2013-05-22 07:11:00,
2013-05-22 00:16:00,41.0,13.3,30.11,SSE,158,0.7,2.2,32,0.00,,,0.00,WUHU216HW,2013-05-22 07:16:00,
2013-05-22 00:21:00,40.7,13.1,30.11,SSE,158,2.9,4.5,32,0.00,,,0.00,WUHU216HW,2013-05-22 07:21:00,
2013-05-22 00:26:00,40.5,13.5,30.11,SE,135,1.3,4.5,33,0.00,,,0.00,WUHU216HW,2013-05-22 07:26:00,
2013-05-22 00:31:00,40.3,13.3,30.10,ESE,113,1.3,2.9,33,0.00,,,0.00,WUHU216HW,2013-05-22 07:31:00,
2013-05-22 00:36:00,40.1,13.2,30.10,SE,135,0.0,2.0,33,0.00,,,0.00,WUHU216HW,2013-05-22 07:36:00,
2013-05-22 00:41:00,40.0,13.1,30.10,ESE,113,0.0,1.8,33,0.00,,,0.00,WUHU216HW,2013-05-22 07:41:00,
2013-05-22 00:46:00,39.8,13.5,30.11,SSE,158,0.0,1.1,34,0.00,,,0.00,WUHU216HW,2013-05-22 07:46:00,
2013-05-22 00:51:00,39.6,14.1,30.11,SSE,158,0.0,0.0,35,0.00,,,0.00,WUHU216HW,2013-05-22 07:51:00,
2013-05-22 00:56:00,39.6,14.1,30.10,SSE,158,2.0,3.6,35,0.00,,,0.00,WUHU216HW,2013-05-22 07:56:00,
2013-05-22 01:01:00,39.6,14.1,30.10,SSE,158,1.8,3.6,35,0.00,,,0.00,WUHU216HW,2013-05-22 08:01:00,
2013-05-22 01:06:00,39.6,14.1,30.10,SE,135,0.9,2.5,35,0.00,,,0.00,WUHU216HW,2013-05-22 08:06:00,
2013-05-22 01:11:00,39.2,13.7,30.10,ESE,113,0.4,1.8,35,0.00,,,0.00,WUHU216HW,2013-05-22 08:11:00,
2013-05-22 01:16:00,38.9,13.3,30.10,SE,135,0.0,1.6,35,0.00,,,0.00,WUHU216HW,2013-05-22 08:16:00,
2013-05-22 01:21:00,38.7,13.2,30.10,SSE,158,0.0,0.7,35,0.00,,,0.00,WUHU216HW,2013-05-22 08:21:00,
2013-05-22 01:26:00,38.5,13.7,30.10,SE,135,0.0,0.4,36,0.00,,,0.00,WUHU216HW,2013-05-22 08:26:00,
2013-05-22 01:31:00,38.3,13.5,30.09,SSE,158,0.0,1.1,36,0.00,,,0.00,WUHU216HW,2013-05-22 08:31:00,
2013-05-22 01:36:00,38.2,13.3,30.10,SE,135,0.4,1.1,36,0.00,,,0.00,WUHU216HW,2013-05-22 08:36:00,
2013-05-22 01:41:00,37.8,13.1,30.09,SE,135,0.4,1.1,36,0.00,,,0.00,WUHU216HW,2013-05-22 08:41:00,
2013-05-22 01:46:00,37.6,13.5,30.09,SE,135,0.0,1.1,37,0.00,,,0.00,WUHU216HW,2013-05-22 08:46:00,
2013-05-22 01:51:00,37.6,13.5,30.09,SE,135,0.0,0.2,37,0.00,,,0.00,WUHU216HW,2013-05-22 08:51:00,
2013-05-22 01:56:00,37.6,13.5,30.09,SE,135,0.4,0.9,37,0.00,,,0.00,WUHU216HW,2013-05-22 08:56:00,
2013-05-22 02:01:00,37.6,13.5,30.09,SE,135,1.1,1.3,37,0.00,,,0.00,WUHU216HW,2013-05-22 09:01:00,
2013-05-22 02:06:00,37.6,13.5,30.09,ESE,113,1.3,1.8,37,0.00,,,0.00,WUHU216HW,2013-05-22 09:06:00,
2013-05-22 02:11:00,37.4,13.3,30.09,ESE,113,1.3,1.8,37,0.00,,,0.00,WUHU216HW,2013-05-22 09:11:00,
2013-05-22 02:16:00,37.1,13.1,30.09,SE,135,0.4,1.3,37,0.00,,,0.00,WUHU216HW,2013-05-22 09:16:00,
2013-05-22 02:21:00,37.1,13.7,30.09,SE,135,0.0,1.3,38,0.00,,,0.00,WUHU216HW,2013-05-22 09:21:00,
2013-05-22 02:26:00,36.9,13.5,30.09,SSE,158,0.0,0.4,38,0.00,,,0.00,WUHU216HW,2013-05-22 09:26:00,
2013-05-22 02:31:00,36.7,13.3,30.09,SE,135,0.0,0.0,38,0.00,,,0.00,WUHU216HW,2013-05-22 09:31:00,
2013-05-22 02:36:00,36.7,13.3,30.10,SSE,158,0.0,0.0,38,0.00,,,0.00,WUHU216HW,2013-05-22 09:36:00,
2013-05-22 02:41:00,36.5,13.9,30.09,SSE,158,0.0,0.0,39,0.00,,,0.00,WUHU216HW,2013-05-22 09:41:00,
2013-05-22 02:46:00,36.5,13.9,30.10,SSE,158,0.0,0.0,39,0.00,,,0.00,WUHU216HW,2013-05-22 09:46:00,
2013-05-22 02:51:00,36.5,13.9,30.09,SSE,158,0.0,0.0,39,0.00,,,0.00,WUHU216HW,2013-05-22 09:51:00,
2013-05-22 02:56:00,36.4,13.7,30.09,SSE,158,0.0,0.0,39,0.00,,,0.00,WUHU216HW,2013-05-22 09:56:00,
2013-05-22 03:01:00,36.4,13.7,30.09,SSE,158,1.1,2.5,39,0.00,,,0.00,WUHU216HW,2013-05-22 10:01:00,
2013-05-22 03:06:00,36.0,13.3,30.09,West,270,0.9,2.5,39,0.00,,,0.00,WUHU216HW,2013-05-22 10:06:00,
2013-05-22 03:11:00,35.8,13.9,30.09,West,270,0.0,1.1,40,0.00,,,0.00,WUHU216HW,2013-05-22 10:11:00,
2013-05-22 03:16:00,35.6,13.7,30.09,SE,135,0.7,1.1,40,0.00,,,0.00,WUHU216HW,2013-05-22 10:16:00,
2013-05-22 03:21:00,35.6,13.7,30.09,South,180,0.7,1.1,40,0.00,,,0.00,WUHU216HW,2013-05-22 10:21:00,
2013-05-22 03:26:00,35.5,14.1,30.09,SE,135,0.0,1.3,41,0.00,,,0.00,WUHU216HW,2013-05-22 10:26:00,
2013-05-22 03:31:00,35.5,14.1,30.09,ENE,68,0.0,2.7,41,0.00,,,0.00,WUHU216HW,2013-05-22 10:31:00,
2013-05-22 03:36:00,35.6,14.2,30.09,SSE,158,0.0,2.7,41,0.00,,,0.00,WUHU216HW,2013-05-22 10:36:00,
2013-05-22 03:41:00,35.5,14.6,30.08,South,180,0.2,1.8,42,0.00,,,0.00,WUHU216HW,2013-05-22 10:41:00,
2013-05-22 03:46:00,35.5,14.1,30.08,SSE,158,1.3,1.8,41,0.00,,,0.00,WUHU216HW,2013-05-22 10:46:00,
2013-05-22 03:51:00,35.5,14.6,30.08,SE,135,0.7,1.3,42,0.00,,,0.00,WUHU216HW,2013-05-22 10:51:00,
2013-05-22 03:56:00,35.3,14.4,30.08,South,180,0.7,1.3,42,0.00,,,0.00,WUHU216HW,2013-05-22 10:56:00,
2013-05-22 04:01:00,35.1,14.2,30.08,SSE,158,0.0,1.3,42,0.00,,,0.00,WUHU216HW,2013-05-22 11:01:00,
2013-05-22 04:06:00,34.9,13.6,30.08,South,180,0.0,1.3,41,0.00,,,0.00,WUHU216HW,2013-05-22 11:06:00,
2013-05-22 04:11:00,34.9,13.6,30.08,SE,135,0.0,1.8,41,0.00,,,0.00,WUHU216HW,2013-05-22 11:11:00,
2013-05-22 04:15:00,34.9,13.6,30.08,SE,135,0.0,1.8,41,0.00,,,0.00,WUHU216HW,2013-05-22 11:15:00,
2013-05-22 04:20:00,34.9,14.0,30.08,SW,225,0.0,0.7,42,0.00,,,0.00,WUHU216HW,2013-05-22 11:20:00,
2013-05-22 04:25:00,34.9,14.0,30.08,South,180,0.4,1.1,42,0.00,,,0.00,WUHU216HW,2013-05-22 11:25:00,
2013-05-22 04:30:00,34.9,14.0,30.08,SSW,203,0.0,1.1,42,0.00,,,0.00,WUHU216HW,2013-05-22 11:30:00,
2013-05-22 04:35:00,34.9,14.0,30.08,South,180,1.1,1.3,42,0.00,,,0.00,WUHU216HW,2013-05-22 11:35:00,
2013-05-22 04:40:00,34.9,14.0,30.08,South,180,1.3,1.8,42,0.00,,,0.00,WUHU216HW,2013-05-22 11:40:00,
2013-05-22 04:45:00,34.9,14.0,30.08,SSE,158,0.4,2.5,42,0.00,,,0.00,WUHU216HW,2013-05-22 11:45:00,
2013-05-22 04:50:00,34.7,13.9,30.08,SSE,158,0.9,2.5,42,0.00,,,0.00,WUHU216HW,2013-05-22 11:50:00,
2013-05-22 04:55:00,34.6,13.8,30.08,SSE,158,1.1,1.8,42,0.00,,,0.00,WUHU216HW,2013-05-22 11:55:00,
2013-05-22 05:00:00,34.2,14.0,30.08,SSW,203,0.0,1.8,43,0.00,,,0.00,WUHU216HW,2013-05-22 12:00:00,
2013-05-22 05:05:00,34.2,14.0,30.08,SSW,203,0.0,0.7,43,0.00,,,0.00,WUHU216HW,2013-05-22 12:05:00,
2013-05-22 05:10:00,34.0,13.8,30.08,SSE,158,0.4,0.4,43,0.00,,,0.00,WUHU216HW,2013-05-22 12:10:00,
2013-05-22 05:15:00,33.8,14.0,30.07,West,270,0.9,2.0,44,0.00,,,0.00,WUHU216HW,2013-05-22 12:15:00,
2013-05-22 05:20:00,33.7,14.0,30.08,ENE,68,0.0,2.0,44,0.00,,,0.00,WUHU216HW,2013-05-22 12:20:00,
2013-05-22 05:25:00,33.5,13.8,30.08,ESE,113,0.0,1.6,44,0.00,,,0.00,WUHU216HW,2013-05-22 12:25:00,
2013-05-22 05:30:00,33.5,14.2,30.08,SE,135,0.7,1.3,45,0.00,,,0.00,WUHU216HW,2013-05-22 12:30:00,
2013-05-22 05:35:00,33.7,14.4,30.08,SE,135,0.4,1.1,45,0.00,,,0.00,WUHU216HW,2013-05-22 12:35:00,
2013-05-22 05:40:00,33.7,14.4,30.08,South,180,0.0,1.3,45,0.00,,,0.00,WUHU216HW,2013-05-22 12:40:00,
2013-05-22 05:45:00,33.7,14.4,30.08,SE,135,0.0,1.3,45,0.00,,,0.00,WUHU216HW,2013-05-22 12:45:00,
2013-05-22 05:50:00,33.8,14.6,30.08,SSE,158,0.9,1.3,45,0.00,,,0.00,WUHU216HW,2013-05-22 12:50:00,
2013-05-22 05:55:00,34.0,14.8,30.08,South,180,0.4,2.0,45,0.00,,,0.00,WUHU216HW,2013-05-22 12:55:00,
2013-05-22 06:00:00,34.2,15.4,30.08,South,180,1.1,4.0,46,0.00,,,0.00,WUHU216HW,2013-05-22 13:00:00,
2013-05-22 06:05:00,35.1,16.8,30.08,West,270,3.4,4.0,47,0.00,,,0.00,WUHU216HW,2013-05-22 13:05:00,
2013-05-22 06:10:00,36.0,17.6,30.08,West,270,2.5,5.1,47,0.00,,,0.00,WUHU216HW,2013-05-22 13:10:00,
2013-05-22 06:15:00,37.8,18.7,30.08,SW,225,2.5,5.6,46,0.00,,,0.00,WUHU216HW,2013-05-22 13:15:00,
2013-05-22 06:20:00,39.4,19.7,30.08,West,270,2.7,5.6,45,0.00,,,0.00,WUHU216HW,2013-05-22 13:20:00,
2013-05-22 06:25:00,41.0,21.2,30.08,SW,225,4.7,5.4,45,0.00,,,0.00,WUHU216HW,2013-05-22 13:25:00,
2013-05-22 06:30:00,42.3,21.2,30.08,West,270,5.4,6.0,43,0.00,,,0.00,WUHU216HW,2013-05-22 13:30:00,
2013-05-22 06:35:00,43.4,21.7,30.08,SW,225,3.4,6.7,42,0.00,,,0.00,WUHU216HW,2013-05-22 13:35:00,
2013-05-22 06:40:00,44.1,21.9,30.08,SW,225,3.4,6.7,41,0.00,,,0.00,WUHU216HW,2013-05-22 13:40:00,
2013-05-22 06:45:00,45.2,22.2,30.08,WNW,293,1.8,5.8,40,0.00,,,0.00,WUHU216HW,2013-05-22 13:45:00,
2013-05-22 06:50:00,46.3,22.6,30.08,WSW,248,4.0,5.8,39,0.00,,,0.00,WUHU216HW,2013-05-22 13:50:00,
2013-05-22 06:55:00,47.2,22.7,30.08,West,270,3.4,4.0,38,0.00,,,0.00,WUHU216HW,2013-05-22 13:55:00,
2013-05-22 07:00:00,48.2,23.7,30.08,West,270,2.9,5.4,38,0.00,,,0.00,WUHU216HW,2013-05-22 14:00:00,
2013-05-22 07:05:00,49.1,24.5,30.08,West,270,3.4,5.4,38,0.00,,,0.00,WUHU216HW,2013-05-22 14:05:00,
2013-05-22 07:10:00,49.9,24.4,30.08,West,270,1.6,3.8,37,0.00,,,0.00,WUHU216HW,2013-05-22 14:10:00,
2013-05-22 07:15:00,51.3,25.0,30.08,West,270,2.7,4.7,36,0.00,,,0.00,WUHU216HW,2013-05-22 14:15:00,
2013-05-22 07:20:00,52.2,24.5,30.08,West,270,5.4,5.4,34,0.00,,,0.00,WUHU216HW,2013-05-22 14:20:00,
2013-05-22 07:25:00,53.3,24.8,30.08,WSW,248,3.8,6.7,33,0.00,,,0.00,WUHU216HW,2013-05-22 14:25:00,
2013-05-22 07:30:00,54.4,25.0,30.08,WSW,248,1.3,6.7,32,0.00,,,0.00,WUHU216HW,2013-05-22 14:30:00,
2013-05-22 07:35:00,55.3,25.0,30.08,WSW,248,3.6,6.9,31,0.00,,,0.00,WUHU216HW,2013-05-22 14:35:00,
2013-05-22 07:40:00,56.2,24.2,30.08,SW,225,2.9,6.9,29,0.00,,,0.00,WUHU216HW,2013-05-22 14:40:00,
2013-05-22 07:45:00,57.2,24.2,30.08,West,270,4.0,6.9,28,0.00,,,0.00,WUHU216HW,2013-05-22 14:45:00,
2013-05-22 07:50:00,58.5,25.3,30.08,WSW,248,4.7,6.3,28,0.00,,,0.00,WUHU216HW,2013-05-22 14:50:00,
2013-05-22 07:55:00,59.8,25.4,30.08,WSW,248,4.9,8.5,27,0.00,,,0.00,WUHU216HW,2013-05-22 14:55:00,
2013-05-22 08:00:00,61.0,25.5,30.08,WNW,293,2.5,8.5,26,0.00,,,0.00,WUHU216HW,2013-05-22 15:00:00,
2013-05-22 08:05:00,64.1,27.2,30.08,SSE,158,2.9,6.3,25,0.00,,,0.00,WUHU216HW,2013-05-22 15:05:00,
2013-05-22 08:10:00,68.4,28.8,30.08,WSW,248,7.2,7.2,23,0.00,,,0.00,WUHU216HW,2013-05-22 15:10:00,
2013-05-22 08:15:00,71.3,30.3,30.08,SSE,158,3.4,7.2,22,0.00,,,0.00,WUHU216HW,2013-05-22 15:15:00,
2013-05-22 08:20:00,72.2,27.3,30.08,SW,225,7.6,8.7,19,0.00,,,0.00,WUHU216HW,2013-05-22 15:20:00,
2013-05-22 08:25:00,70.6,28.6,30.08,West,270,1.6,12.1,21,0.00,,,0.00,WUHU216HW,2013-05-22 15:25:00,
2013-05-22 08:30:00,70.2,25.7,30.08,SW,225,9.2,12.1,19,0.00,,,0.00,WUHU216HW,2013-05-22 15:30:00,
2013-05-22 08:35:00,69.3,27.5,30.08,West,270,4.5,11.2,21,0.00,,,0.00,WUHU216HW,2013-05-22 15:35:00,
2013-05-22 08:40:00,68.9,27.3,30.08,West,270,6.0,9.6,21,0.00,,,0.00,WUHU216HW,2013-05-22 15:40:00,
2013-05-22 08:45:00,69.5,27.7,30.08,South,180,9.2,11.0,21,0.00,,,0.00,WUHU216HW,2013-05-22 15:45:00,
2013-05-22 08:50:00,70.0,28.2,30.08,West,270,8.5,11.9,21,0.00,,,0.00,WUHU216HW,2013-05-22 15:50:00,
2013-05-22 08:55:00,70.2,25.7,30.08,SW,225,10.5,14.3,19,0.00,,,0.00,WUHU216HW,2013-05-22 15:55:00,
2013-05-22 09:00:00,70.4,25.8,30.08,WNW,293,7.2,14.3,19,0.00,,,0.00,WUHU216HW,2013-05-22 16:00:00,
2013-05-22 09:05:00,70.0,28.2,30.08,SW,225,6.5,14.1,21,0.00,,,0.00,WUHU216HW,2013-05-22 16:05:00,
2013-05-22 09:10:00,70.2,28.3,30.07,West,270,11.4,15.4,21,0.00,,,0.00,WUHU216HW,2013-05-22 16:10:00,
2013-05-22 09:15:00,70.9,26.3,30.07,WSW,248,10.5,15.4,19,0.00,,,0.00,WUHU216HW,2013-05-22 16:15:00,
2013-05-22 09:20:00,71.3,29.2,30.07,West,270,8.5,14.8,21,0.00,,,0.00,WUHU216HW,2013-05-22 16:20:00,
2013-05-22 09:25:00,72.0,27.2,30.07,SW,225,6.9,14.8,19,0.00,,,0.00,WUHU216HW,2013-05-22 16:25:00,
2013-05-22 09:30:00,71.8,27.0,30.07,SW,225,6.3,15.9,19,0.00,,,0.00,WUHU216HW,2013-05-22 16:30:00,
2013-05-22 09:35:00,72.4,25.8,30.07,WSW,248,6.7,17.4,18,0.00,,,0.00,WUHU216HW,2013-05-22 16:35:00,
2013-05-22 09:40:00,72.7,27.8,30.07,SW,225,13.6,17.4,19,0.00,,,0.00,WUHU216HW,2013-05-22 16:40:00,
2013-05-22 09:45:00,72.4,25.8,30.08,WSW,248,15.7,20.4,18,0.00,,,0.00,WUHU216HW,2013-05-22 16:45:00,
2013-05-22 09:50:00,73.1,26.5,30.08,SSW,203,5.8,20.4,18,0.00,,,0.00,WUHU216HW,2013-05-22 16:50:00,
2013-05-22 09:55:00,73.6,26.9,30.08,NW,315,4.7,17.2,18,0.00,,,0.00,WUHU216HW,2013-05-22 16:55:00,
2013-05-22 10:00:00,74.0,27.2,30.08,SW,225,11.2,17.2,18,0.00,,,0.00,WUHU216HW,2013-05-22 17:00:00,
2013-05-22 10:05:00,74.5,26.0,30.08,WSW,248,13.4,16.3,17,0.00,,,0.00,WUHU216HW,2013-05-22 17:05:00,
2013-05-22 10:10:00,74.5,26.0,30.08,SE,135,10.3,17.0,17,0.00,,,0.00,WUHU216HW,2013-05-22 17:10:00,
2013-05-22 10:15:00,74.0,25.6,30.08,SSW,203,6.0,17.0,17,0.00,,,0.00,WUHU216HW,2013-05-22 17:15:00,
2013-05-22 10:20:00,74.5,27.6,30.08,WSW,248,4.5,16.6,18,0.00,,,0.00,WUHU216HW,2013-05-22 17:20:00,
2013-05-22 10:25:00,75.2,26.6,30.08,WSW,248,4.7,16.6,17,0.00,,,0.00,WUHU216HW,2013-05-22 17:25:00,
2013-05-22 10:30:00,75.4,25.0,30.08,SSW,203,8.1,20.6,16,0.00,,,0.00,WUHU216HW,2013-05-22 17:30:00,
2013-05-22 10:35:00,75.2,24.8,30.08,NNW,338,4.5,20.6,16,0.00,,,0.00,WUHU216HW,2013-05-22 17:35:00,
2013-05-22 10:40:00,75.4,26.6,30.08,West,270,10.5,17.0,17,0.00,,,0.00,WUHU216HW,2013-05-22 17:40:00,
2013-05-22 10:45:00,75.8,27.0,30.08,WNW,293,11.4,16.3,17,0.00,,,0.00,WUHU216HW,2013-05-22 17:45:00,
2013-05-22 10:50:00,75.6,26.8,30.08,WSW,248,9.8,16.8,17,0.00,,,0.00,WUHU216HW,2013-05-22 17:50:00,
2013-05-22 10:55:00,74.9,26.3,30.08,WNW,293,12.1,18.6,17,0.00,,,0.00,WUHU216HW,2013-05-22 17:55:00,
2013-05-22 11:00:00,74.9,26.3,30.08,West,270,11.9,18.6,17,0.00,,,0.00,WUHU216HW,2013-05-22 18:00:00,
2013-05-22 11:05:00,75.4,26.6,30.08,WSW,248,7.2,18.1,17,0.00,,,0.00,WUHU216HW,2013-05-22 18:05:00,
2013-05-22 11:10:00,76.5,27.5,30.08,WNW,293,18.8,18.8,17,0.00,,,0.00,WUHU216HW,2013-05-22 18:10:00,
2013-05-22 11:15:00,76.3,27.4,30.08,South,180,15.4,18.8,17,0.00,,,0.00,WUHU216HW,2013-05-22 18:15:00,
2013-05-22 11:20:00,77.0,28.0,30.08,SSE,158,12.5,18.8,17,0.00,,,0.00,WUHU216HW,2013-05-22 18:20:00,
2013-05-22 11:25:00,77.4,26.6,30.08,SE,135,8.5,17.9,16,0.00,,,0.00,WUHU216HW,2013-05-22 18:25:00,
2013-05-22 11:30:00,77.6,26.7,30.07,NW,315,5.6,17.9,16,0.00,,,0.00,WUHU216HW,2013-05-22 18:30:00,
2013-05-22 11:35:00,76.9,26.2,30.07,SSE,158,17.4,17.4,16,0.00,,,0.00,WUHU216HW,2013-05-22 18:35:00,
2013-05-22 11:40:00,77.6,26.7,30.07,WSW,248,8.3,22.4,16,0.00,,,0.00,WUHU216HW,2013-05-22 18:40:00,
2013-05-22 11:45:00,77.8,26.8,30.07,SSW,203,8.5,22.4,16,0.00,,,0.00,WUHU216HW,2013-05-22 18:45:00,
2013-05-22 11:50:00,77.9,27.0,30.07,South,180,7.4,17.2,16,0.00,,,0.00,WUHU216HW,2013-05-22 18:50:00,
2013-05-22 11:55:00,78.3,27.3,30.07,West,270,9.4,18.6,16,0.00,,,0.00,WUHU216HW,2013-05-22 18:55:00,
2013-05-22 12:00:00,77.8,26.8,30.06,WSW,248,8.7,18.6,16,0.00,,,0.00,WUHU216HW,2013-05-22 19:00:00,
2013-05-22 12:06:00,77.8,26.8,30.06,WNW,293,5.8,16.6,16,0.00,,,0.00,WUHU216HW,2013-05-22 19:06:00,
2013-05-22 12:11:00,78.3,27.3,30.06,SSW,203,16.8,16.8,16,0.00,,,0.00,WUHU216HW,2013-05-22 19:11:00,
2013-05-22 12:16:00,78.3,25.6,30.07,South,180,9.8,22.4,15,0.00,,,0.00,WUHU216HW,2013-05-22 19:16:00,
2013-05-22 12:21:00,78.1,25.5,30.06,WSW,248,9.2,22.4,15,0.00,,,0.00,WUHU216HW,2013-05-22 19:21:00,
2013-05-22 12:26:00,77.9,25.4,30.06,SSW,203,13.6,21.0,15,0.00,,,0.00,WUHU216HW,2013-05-22 19:26:00,
2013-05-22 12:31:00,77.8,25.2,30.06,WSW,248,8.5,21.0,15,0.00,,,0.00,WUHU216HW,2013-05-22 19:31:00,
2013-05-22 12:36:00,78.1,25.5,30.06,SSE,158,10.1,20.4,15,0.00,,,0.00,WUHU216HW,2013-05-22 19:36:00,
2013-05-22 12:41:00,78.5,25.7,30.06,SSW,203,11.2,13.4,15,0.00,,,0.00,WUHU216HW,2013-05-22 19:41:00,
2013-05-22 12:46:00,78.5,25.7,30.05,SW,225,12.8,14.1,15,0.00,,,0.00,WUHU216HW,2013-05-22 19:46:00,
2013-05-22 12:51:00,78.1,25.5,30.05,SW,225,13.4,16.3,15,0.00,,,0.00,WUHU216HW,2013-05-22 19:51:00,
2013-05-22 12:56:00,78.1,25.5,30.05,SW,225,13.4,16.3,15,0.00,,,0.00,WUHU216HW,2013-05-22 19:56:00,
2013-05-22 13:01:00,78.1,25.5,30.05,South,180,9.2,21.3,15,0.00,,,0.00,WUHU216HW,2013-05-22 20:01:00,
2013-05-22 13:06:00,78.1,25.5,30.05,SW,225,5.4,21.3,15,0.00,,,0.00,WUHU216HW,2013-05-22 20:06:00,
2013-05-22 13:11:00,77.8,25.2,30.04,SW,225,15.2,19.5,15,0.00,,,0.00,WUHU216HW,2013-05-22 20:11:00,
2013-05-22 13:16:00,77.8,25.2,30.05,WSW,248,6.3,19.5,15,0.00,,,0.00,WUHU216HW,2013-05-22 20:16:00,
2013-05-22 13:21:00,78.1,25.5,30.04,SW,225,9.4,16.6,15,0.00,,,0.00,WUHU216HW,2013-05-22 20:21:00,
2013-05-22 13:26:00,78.5,25.7,30.04,SSE,158,11.6,16.6,15,0.00,,,0.00,WUHU216HW,2013-05-22 20:26:00,
2013-05-22 13:31:00,78.3,25.6,30.05,SW,225,12.3,15.7,15,0.00,,,0.00,WUHU216HW,2013-05-22 20:31:00,
2013-05-22 13:36:00,78.3,25.6,30.05,SW,225,16.3,19.7,15,0.00,,,0.00,WUHU216HW,2013-05-22 20:36:00,
2013-05-22 13:41:00,77.9,25.4,30.05,SW,225,14.8,21.0,15,0.00,,,0.00,WUHU216HW,2013-05-22 20:41:00,
2013-05-22 13:46:00,77.8,25.2,30.04,SSW,203,11.4,21.0,15,0.00,,,0.00,WUHU216HW,2013-05-22 20:46:00,
2013-05-22 13:51:00,77.9,25.4,30.04,SW,225,8.7,19.2,15,0.00,,,0.00,WUHU216HW,2013-05-22 20:51:00,
2013-05-22 13:55:00,77.9,25.4,30.04,West,270,6.9,22.1,15,0.00,,,0.00,WUHU216HW,2013-05-22 20:55:00,
2013-05-22 14:00:00,77.8,25.2,30.04,SSE,158,11.0,22.1,15,0.00,,,0.00,WUHU216HW,2013-05-22 21:00:00,
2013-05-22 14:06:00,77.4,24.9,30.04,WSW,248,6.0,19.2,15,0.00,,,0.00,WUHU216HW,2013-05-22 21:06:00,
2013-05-22 14:10:00,77.4,24.9,30.04,WSW,248,8.1,18.6,15,0.00,,,0.00,WUHU216HW,2013-05-22 21:10:00,
2013-05-22 14:15:00,77.4,24.9,30.04,SW,225,8.9,17.7,15,0.00,,,0.00,WUHU216HW,2013-05-22 21:15:00,
2013-05-22 14:20:00,77.6,25.0,30.04,South,180,12.3,17.7,15,0.00,,,0.00,WUHU216HW,2013-05-22 21:20:00,
2013-05-22 14:25:00,77.8,25.2,30.04,SW,225,13.6,19.2,15,0.00,,,0.00,WUHU216HW,2013-05-22 21:25:00,
2013-05-22 14:30:00,77.8,25.2,30.04,SSE,158,12.5,19.2,15,0.00,,,0.00,WUHU216HW,2013-05-22 21:30:00,
2013-05-22 14:35:00,77.8,25.2,30.04,WSW,248,6.9,16.3,15,0.00,,,0.00,WUHU216HW,2013-05-22 21:35:00,
2013-05-22 14:40:00,78.1,25.5,30.04,South,180,8.5,16.3,15,0.00,,,0.00,WUHU216HW,2013-05-22 21:40:00,
2013-05-22 14:45:00,78.1,22.2,30.04,West,270,11.4,16.6,13,0.00,,,0.00,WUHU216HW,2013-05-22 21:45:00,
2013-05-22 14:50:00,77.8,21.9,30.04,WSW,248,10.3,17.4,13,0.00,,,0.00,WUHU216HW,2013-05-22 21:50:00,
2013-05-22 14:55:00,77.8,25.2,30.04,NW,315,5.8,20.1,15,0.00,,,0.00,WUHU216HW,2013-05-22 21:55:00,
2013-05-22 15:00:00,77.8,25.2,30.04,WSW,248,7.4,20.1,15,0.00,,,0.00,WUHU216HW,2013-05-22 22:00:00,
2013-05-22 15:05:00,77.4,24.9,30.04,South,180,8.9,21.7,15,0.00,,,0.00,WUHU216HW,2013-05-22 22:05:00,
2013-05-22 15:10:00,77.4,24.9,30.03,SSW,203,5.4,21.7,15,0.00,,,0.00,WUHU216HW,2013-05-22 22:10:00,
2013-05-22 15:15:00,77.2,24.8,30.04,SSW,203,12.1,25.3,15,0.00,,,0.00,WUHU216HW,2013-05-22 22:15:00,
2013-05-22 15:20:00,77.0,24.7,30.04,SW,225,6.3,25.3,15,0.00,,,0.00,WUHU216HW,2013-05-22 22:20:00,
2013-05-22 15:25:00,77.0,24.7,30.04,SW,225,11.2,17.2,15,0.00,,,0.00,WUHU216HW,2013-05-22 22:25:00,
2013-05-22 15:30:00,76.9,24.5,30.03,ESE,113,10.5,16.3,15,0.00,,,0.00,WUHU216HW,2013-05-22 22:30:00,
2013-05-22 15:35:00,77.0,24.7,30.03,WSW,248,6.7,16.3,15,0.00,,,0.00,WUHU216HW,2013-05-22 22:35:00,
2013-05-22 15:40:00,76.9,24.5,30.03,WSW,248,7.8,14.8,15,0.00,,,0.00,WUHU216HW,2013-05-22 22:40:00,
2013-05-22 15:45:00,76.9,24.5,30.03,SW,225,6.5,19.2,15,0.00,,,0.00,WUHU216HW,2013-05-22 22:45:00,
2013-05-22 15:50:00,76.5,24.2,30.03,SW,225,10.1,24.2,15,0.00,,,0.00,WUHU216HW,2013-05-22 22:50:00,
2013-05-22 15:55:00,76.0,23.8,30.03,South,180,8.1,24.2,15,0.00,,,0.00,WUHU216HW,2013-05-22 22:55:00,
2013-05-22 16:00:00,76.0,23.8,30.03,South,180,9.2,19.0,15,0.00,,,0.00,WUHU216HW,2013-05-22 23:00:00,
2013-05-22 16:05:00,75.8,23.7,30.03,WSW,248,6.9,19.0,15,0.00,,,0.00,WUHU216HW,2013-05-22 23:05:00,
2013-05-22 16:10:00,75.6,23.5,30.03,SSW,203,5.4,18.6,15,0.00,,,0.00,WUHU216HW,2013-05-22 23:10:00,
2013-05-22 16:15:00,75.6,23.5,30.03,SW,225,11.4,17.4,15,0.00,,,0.00,WUHU216HW,2013-05-22 23:15:00,
2013-05-22 16:20:00,75.4,23.4,30.03,WSW,248,6.9,17.4,15,0.00,,,0.00,WUHU216HW,2013-05-22 23:20:00,
2013-05-22 16:25:00,75.6,23.5,30.03,South,180,14.3,14.3,15,0.00,,,0.00,WUHU216HW,2013-05-22 23:25:00,
2013-05-22 16:30:00,75.4,23.4,30.03,WSW,248,6.9,15.7,15,0.00,,,0.00,WUHU216HW,2013-05-22 23:30:00,
2013-05-22 16:35:00,75.2,23.2,30.03,West,270,6.5,15.7,15,0.00,,,0.00,WUHU216HW,2013-05-22 23:35:00,
2013-05-22 16:40:00,75.2,23.2,30.03,South,180,7.2,11.4,15,0.00,,,0.00,WUHU216HW,2013-05-22 23:40:00,
2013-05-22 16:45:00,75.1,23.1,30.03,WSW,248,3.6,15.2,15,0.00,,,0.00,WUHU216HW,2013-05-22 23:45:00,
2013-05-22 16:50:00,74.9,23.0,30.03,SSE,158,9.8,15.2,15,0.00,,,0.00,WUHU216HW,2013-05-22 23:50:00,
2013-05-22 16:55:00,74.5,24.3,30.02,WNW,293,4.5,15.7,16,0.00,,,0.00,WUHU216HW,2013-05-22 23:55:00,
2013-05-22 17:00:00,74.7,22.9,30.02,SSE,158,4.9,15.7,15,0.00,,,0.00,WUHU216HW,2013-05-23 00:00:00,
2013-05-22 17:05:00,74.5,24.3,30.02,West,270,2.2,13.4,16,0.00,,,0.00,WUHU216HW,2013-05-23 00:05:00,
2013-05-22 17:10:00,74.3,24.2,30.02,West,270,5.4,13.4,16,0.00,,,0.00,WUHU216HW,2013-05-23 00:10:00,
2013-05-22 17:15:00,74.3,24.2,30.03,SSW,203,14.5,15.0,16,0.00,,,0.00,WUHU216HW,2013-05-23 00:15:00,
2013-05-22 17:20:00,74.0,24.0,30.03,WSW,248,4.7,15.0,16,0.00,,,0.00,WUHU216HW,2013-05-23 00:20:00,
2013-05-22 17:25:00,73.6,23.7,30.03,SSW,203,8.5,13.4,16,0.00,,,0.00,WUHU216HW,2013-05-23 00:25:00,
2013-05-22 17:30:00,73.3,23.3,30.02,WSW,248,7.8,10.3,16,0.00,,,0.00,WUHU216HW,2013-05-23 00:30:00,
2013-05-22 17:35:00,73.1,23.2,30.02,SSE,158,5.1,12.1,16,0.00,,,0.00,WUHU216HW,2013-05-23 00:35:00,
2013-05-22 17:40:00,72.7,22.9,30.02,South,180,5.4,12.1,16,0.00,,,0.00,WUHU216HW,2013-05-23 00:40:00,
2013-05-22 17:45:00,72.4,22.6,30.02,SSW,203,12.5,13.4,16,0.00,,,0.00,WUHU216HW,2013-05-23 00:45:00,
2013-05-22 17:50:00,72.0,22.2,30.02,WSW,248,8.7,13.6,16,0.00,,,0.00,WUHU216HW,2013-05-23 00:50:00,
2013-05-22 17:55:00,71.6,22.0,30.03,SSW,203,5.4,13.6,16,0.00,,,0.00,WUHU216HW,2013-05-23 00:55:00,
2013-05-22 18:00:00,71.5,23.4,30.02,SSW,203,9.4,12.5,17,0.00,,,0.00,WUHU216HW,2013-05-23 01:00:00,
2013-05-22 18:05:00,71.3,23.3,30.02,SSW,203,6.3,16.3,17,0.00,,,0.00,WUHU216HW,2013-05-23 01:05:00,
2013-05-22 18:10:00,70.9,23.1,30.02,South,180,12.5,16.3,17,0.00,,,0.00,WUHU216HW,2013-05-23 01:10:00,
2013-05-22 18:15:00,70.7,22.9,30.03,SSE,158,12.1,15.7,17,0.00,,,0.00,WUHU216HW,2013-05-23 01:15:00,
2013-05-22 18:20:00,70.2,22.4,30.03,WSW,248,3.4,15.7,17,0.00,,,0.00,WUHU216HW,2013-05-23 01:20:00,
2013-05-22 18:25:00,70.2,22.4,30.03,SSW,203,8.9,12.3,17,0.00,,,0.00,WUHU216HW,2013-05-23 01:25:00,
2013-05-22 18:30:00,69.8,22.1,30.03,West,270,10.5,13.0,17,0.00,,,0.00,WUHU216HW,2013-05-23 01:30:00,
2013-05-22 18:35:00,69.5,23.5,30.03,South,180,6.3,13.0,18,0.00,,,0.00,WUHU216HW,2013-05-23 01:35:00,
2013-05-22 18:40:00,69.1,23.2,30.03,SSW,203,4.7,14.5,18,0.00,,,0.00,WUHU216HW,2013-05-23 01:40:00,
2013-05-22 18:45:00,68.9,23.0,30.03,SW,225,5.4,14.5,18,0.00,,,0.00,WUHU216HW,2013-05-23 01:45:00,
2013-05-22 18:50:00,68.6,22.8,30.03,SE,135,5.6,10.5,18,0.00,,,0.00,WUHU216HW,2013-05-23 01:50:00,
2013-05-22 18:55:00,68.2,22.5,30.03,SW,225,3.8,10.5,18,0.00,,,0.00,WUHU216HW,2013-05-23 01:55:00,
2013-05-22 19:00:00,67.7,22.1,30.03,ESE,113,6.3,15.4,18,0.00,,,0.00,WUHU216HW,2013-05-23 02:00:00,
2013-05-22 19:05:00,67.3,23.3,30.03,SSE,158,8.1,15.4,19,0.00,,,0.00,WUHU216HW,2013-05-23 02:05:00,
2013-05-22 19:10:00,67.1,23.1,30.03,SSW,203,8.3,11.4,19,0.00,,,0.00,WUHU216HW,2013-05-23 02:10:00,
2013-05-22 19:15:00,66.8,22.9,30.03,SSW,203,4.5,11.4,19,0.00,,,0.00,WUHU216HW,2013-05-23 02:15:00,
2013-05-22 19:20:00,66.4,22.5,30.03,SE,135,6.9,8.7,19,0.00,,,0.00,WUHU216HW,2013-05-23 02:20:00,
2013-05-22 19:25:00,66.1,22.2,30.03,SW,225,5.1,8.7,19,0.00,,,0.00,WUHU216HW,2013-05-23 02:25:00,
2013-05-22 19:30:00,65.7,22.0,30.03,SW,225,2.2,6.9,19,0.00,,,0.00,WUHU216HW,2013-05-23 02:30:00,
2013-05-22 19:35:00,65.3,23.2,30.03,NNW,338,3.4,8.5,20,0.00,,,0.00,WUHU216HW,2013-05-23 02:35:00,
2013-05-22 19:40:00,65.2,24.0,30.03,South,180,7.4,9.8,21,0.00,,,0.00,WUHU216HW,2013-05-23 02:40:00,
2013-05-22 19:45:00,64.8,23.8,30.03,WSW,248,3.6,9.8,21,0.00,,,0.00,WUHU216HW,2013-05-23 02:45:00,
2013-05-22 19:50:00,64.4,23.5,30.03,SW,225,4.0,8.9,21,0.00,,,0.00,WUHU216HW,2013-05-23 02:50:00,
2013-05-22 19:55:00,64.1,23.2,30.03,West,270,5.4,8.9,21,0.00,,,0.00,WUHU216HW,2013-05-23 02:55:00,
2013-05-22 20:00:00,63.9,24.0,30.03,SW,225,6.3,11.6,22,0.00,,,0.00,WUHU216HW,2013-05-23 03:00:00,
2013-05-22 20:05:00,63.7,23.9,30.03,SSE,158,1.1,11.6,22,0.00,,,0.00,WUHU216HW,2013-05-23 03:05:00,
2013-05-22 20:10:00,63.5,23.8,30.03,SSW,203,4.0,8.9,22,0.00,,,0.00,WUHU216HW,2013-05-23 03:10:00,
2013-05-22 20:15:00,63.4,23.6,30.04,WSW,248,8.3,8.9,22,0.00,,,0.00,WUHU216HW,2013-05-23 03:15:00,
2013-05-22 20:20:00,63.0,23.3,30.04,SSW,203,1.8,8.3,22,0.00,,,0.00,WUHU216HW,2013-05-23 03:20:00,
2013-05-22 20:25:00,62.8,23.1,30.04,SSW,203,4.0,7.6,22,0.00,,,0.00,WUHU216HW,2013-05-23 03:25:00,
2013-05-22 20:30:00,62.6,23.9,30.04,West,270,2.9,7.8,23,0.00,,,0.00,WUHU216HW,2013-05-23 03:30:00,
2013-05-22 20:35:00,62.3,23.7,30.04,West,270,2.5,7.8,23,0.00,,,0.00,WUHU216HW,2013-05-23 03:35:00,
2013-05-22 20:40:00,62.1,23.5,30.04,South,180,0.9,4.9,23,0.00,,,0.00,WUHU216HW,2013-05-23 03:40:00,
2013-05-22 20:45:00,61.6,22.2,30.04,WSW,248,2.0,4.7,22,0.00,,,0.00,WUHU216HW,2013-05-23 03:45:00,
2013-05-22 20:50:00,61.4,22.0,30.04,WSW,248,3.4,4.7,22,0.00,,,0.00,WUHU216HW,2013-05-23 03:50:00,
2013-05-22 20:55:00,61.2,21.8,30.04,West,270,1.8,3.8,22,0.00,,,0.00,WUHU216HW,2013-05-23 03:55:00,
2013-05-22 21:00:00,60.8,21.5,30.04,WSW,248,0.7,3.8,22,0.00,,,0.00,WUHU216HW,2013-05-23 04:00:00,
2013-05-22 21:01:00,60.8,21.5,30.04,SW,225,2.5,3.8,22,0.00,,,0.00,WUHU216HW,2013-05-23 04:01:00,
2013-05-22 21:06:00,60.5,22.1,30.04,WSW,248,0.7,3.8,23,0.00,,,0.00,WUHU216HW,2013-05-23 04:06:00,
2013-05-22 21:11:00,60.1,21.9,30.04,WSW,248,0.9,2.5,23,0.00,,,0.00,WUHU216HW,2013-05-23 04:11:00,
2013-05-22 21:16:00,59.8,21.5,30.04,WSW,248,1.8,4.5,23,0.00,,,0.00,WUHU216HW,2013-05-23 04:16:00,
2013-05-22 21:21:00,59.2,22.1,30.04,West,270,2.0,4.5,24,0.00,,,0.00,WUHU216HW,2013-05-23 04:21:00,
2013-05-22 21:26:00,58.9,21.8,30.05,WNW,293,2.5,3.4,24,0.00,,,0.00,WUHU216HW,2013-05-23 04:26:00,
2013-05-22 21:31:00,58.7,21.6,30.04,South,180,1.3,3.1,24,0.00,,,0.00,WUHU216HW,2013-05-23 04:31:00,
2013-05-22 21:36:00,58.5,21.4,30.04,WSW,248,2.2,3.1,24,0.00,,,0.00,WUHU216HW,2013-05-23 04:36:00,
2013-05-22 21:41:00,58.0,21.0,30.04,SSW,203,1.6,3.1,24,0.00,,,0.00,WUHU216HW,2013-05-23 04:41:00,
2013-05-22 21:46:00,57.4,20.5,30.04,West,270,0.0,3.1,24,0.00,,,0.00,WUHU216HW,2013-05-23 04:46:00,
2013-05-22 21:51:00,56.9,21.1,30.04,SSW,203,0.7,2.0,25,0.00,,,0.00,WUHU216HW,2013-05-23 04:51:00,
2013-05-22 21:56:00,56.5,20.7,30.04,WSW,248,0.9,2.2,25,0.00,,,0.00,WUHU216HW,2013-05-23 04:56:00,
2013-05-22 22:01:00,55.8,20.1,30.05,West,270,1.8,2.5,25,0.00,,,0.00,WUHU216HW,2013-05-23 05:01:00,
2013-05-22 22:06:00,55.4,20.7,30.04,WNW,293,2.2,2.7,26,0.00,,,0.00,WUHU216HW,2013-05-23 05:06:00,
2013-05-22 22:11:00,55.1,21.3,30.04,West,270,1.1,2.7,27,0.00,,,0.00,WUHU216HW,2013-05-23 05:11:00,
2013-05-22 22:16:00,54.7,21.1,30.04,West,270,1.8,3.1,27,0.00,,,0.00,WUHU216HW,2013-05-23 05:16:00,
2013-05-22 22:21:00,54.5,21.0,30.04,West,270,2.0,3.1,27,0.00,,,0.00,WUHU216HW,2013-05-23 05:21:00,
2013-05-22 22:26:00,54.4,20.8,30.04,West,270,1.8,2.5,27,0.00,,,0.00,WUHU216HW,2013-05-23 05:26:00,
2013-05-22 22:31:00,54.2,21.6,30.04,SW,225,0.9,2.9,28,0.00,,,0.00,WUHU216HW,2013-05-23 05:31:00,
2013-05-22 22:36:00,53.8,21.2,30.04,WSW,248,1.1,2.9,28,0.00,,,0.00,WUHU216HW,2013-05-23 05:36:00,
2013-05-22 22:41:00,53.5,21.0,30.04,West,270,2.5,3.4,28,0.00,,,0.00,WUHU216HW,2013-05-23 05:41:00,
2013-05-22 22:46:00,53.5,22.0,30.04,West,270,2.7,4.3,29,0.00,,,0.00,WUHU216HW,2013-05-23 05:46:00,
2013-05-22 22:51:00,54.0,22.4,30.04,West,270,2.5,6.0,29,0.00,,,0.00,WUHU216HW,2013-05-23 05:51:00,
2013-05-22 22:56:00,54.4,22.7,30.04,West,270,1.8,6.0,29,0.00,,,0.00,WUHU216HW,2013-05-23 05:56:00,
2013-05-22 23:01:00,54.4,22.7,30.04,West,270,2.9,4.7,29,0.00,,,0.00,WUHU216HW,2013-05-23 06:01:00,
2013-05-22 23:06:00,54.4,21.7,30.04,WSW,248,1.3,4.7,28,0.00,,,0.00,WUHU216HW,2013-05-23 06:06:00,
2013-05-22 23:11:00,54.2,21.6,30.04,SW,225,2.5,4.7,28,0.00,,,0.00,WUHU216HW,2013-05-23 06:11:00,
2013-05-22 23:16:00,54.4,21.7,30.04,SW,225,5.1,7.8,28,0.00,,,0.00,WUHU216HW,2013-05-23 06:16:00,
2013-05-22 23:21:00,54.7,22.1,30.04,SW,225,4.5,7.8,28,0.00,,,0.00,WUHU216HW,2013-05-23 06:21:00,
2013-05-22 23:26:00,55.3,22.5,30.04,WSW,248,7.6,7.6,28,0.00,,,0.00,WUHU216HW,2013-05-23 06:26:00,
2013-05-22 23:31:00,55.6,21.9,30.03,SSW,203,2.0,7.6,27,0.00,,,0.00,WUHU216HW,2013-05-23 06:31:00,
2013-05-22 23:36:00,55.6,21.9,30.03,South,180,2.5,7.6,27,0.00,,,0.00,WUHU216HW,2013-05-23 06:36:00,
2013-05-22 23:41:00,55.4,21.7,30.04,WSW,248,0.9,5.6,27,0.00,,,0.00,WUHU216HW,2013-05-23 06:41:00,
2013-05-22 23:46:00,55.4,21.7,30.03,WSW,248,5.8,6.3,27,0.00,,,0.00,WUHU216HW,2013-05-23 06:46:00,
2013-05-22 23:51:00,55.6,21.9,30.04,West,270,4.7,6.9,27,0.00,,,0.00,WUHU216HW,2013-05-23 06:51:00,
2013-05-22 23:56:00,55.6,21.9,30.04,SW,225,2.5,6.9,27,0.00,,,0.00,WUHU216HW,2013-05-23 06:56:00,